Location: ?????????
(54.7630°N, 39.4991°E)
Time: 02:29:57
(UTC+00:00)

SJ 16-02 - Pass Details

Date: 14 April 2026
Orbit: 582 x 592 km, 75.0° (Epoch: 20 May)

Event Time Altitude Azimuth Distance (km) Brightness Sun altitude
Rises 20:37:07 0° 335° (NNW) 2,832 6.0 -24.9°
Reaches altitude 10° 20:39:21 10° 338° (NNW) 1,925 4.9 -25.0°
Enters shadow 20:43:18 67° 25° (NNE) 641 1.5 -25.1°
